This is the latest recevied weather packets stored in our database for station/object ES2ADF-5. If no packets are shown the sender has not sent any weather packets the latest 1 day(s).
| Time | Temp. | Humidity | Pressure | Rain* | Wind** | Luminosity | Snow |
|---|---|---|---|---|---|---|---|
| 1778080032 | 11.11° C | 36% | 1012.6 hPa | 0 mm | - | - | - |
| 1778078831 | 11.11° C | 36% | 1012.8 hPa | 0 mm | - | - | - |
| 1778076729 | 11.67° C | 35% | 1012.7 hPa | 0 mm | - | - | - |
| 1778074627 | 11.67° C | 37% | 1013.2 hPa | 0 mm | - | - | - |
| 1778074026 | 11.67° C | 36% | 1013.2 hPa | 0 mm | - | - | - |
| 1778073726 | 11.67° C | 35% | 1013.2 hPa | 0 mm | - | - | - |
| 1778072525 | 12.22° C | 36% | 1013.2 hPa | 0 mm | - | - | - |
| 1778071624 | 12.22° C | 35% | 1013.3 hPa | 0 mm | - | - | - |
| 1778070723 | 12.22° C | 35% | 1013.3 hPa | 0 mm | - | - | - |
| 1778070423 | 12.22° C | 36% | 1013.1 hPa | 0 mm | - | - | - |
| 1778069522 | 12.22° C | 34% | 1012.9 hPa | 0 mm | - | - | - |
| 1778068621 | 12.78° C | 33% | 1012.8 hPa | 0 mm | - | - | - |
| 1778067420 | 12.22° C | 33% | 1013.1 hPa | 0 mm | - | - | - |
| 1778066519 | 12.78° C | 34% | 1013 hPa | 0 mm | - | - | - |
| 1778065618 | 12.22° C | 36% | 1012.8 hPa | 0 mm | - | - | - |
| 1778065318 | 12.22° C | 36% | 1013 hPa | 0 mm | - | - | - |
| 1778064417 | 12.22° C | 34% | 1012.9 hPa | 0 mm | - | - | - |
| 1778063516 | 12.22° C | 36% | 1013.2 hPa | 0 mm | - | - | - |
| 1778063216 | 11.67° C | 34% | 1013.2 hPa | 0 mm | - | - | - |
| 1778062615 | 12.22° C | 36% | 1013.2 hPa | 0 mm | - | - | - |
| 1778062315 | 12.22° C | 37% | 1013.2 hPa | 0 mm | - | - | - |
| 1778061414 | 12.78° C | 38% | 1013.3 hPa | 0 mm | - | - | - |
| 1778061114 | 12.78° C | 38% | 1013.2 hPa | 0 mm | - | - | - |
| 1778060513 | 12.78° C | 39% | 1013.1 hPa | 0 mm | - | - | - |
| 1778060213 | 12.78° C | 40% | 1013.1 hPa | 0 mm | - | - | - |
* Rain latest hour (hover to see other rain measurements)
** Current wind speed in m/s (hover to see current wind gust speed)